This is the latest recevied weather packets stored in our database for station/object WA1OUI. If no packets are shown the sender has not sent any weather packets the latest 10 day(s).
| Time | Temp. | Humidity | Pressure | Rain* | Wind** | Luminosity | Snow |
|---|---|---|---|---|---|---|---|
| 1777921215 | 23.33° C | 31% | 1006.5 hPa | 0 mm | - | 611 W/m² | - |
| 1777920912 | 22.78° C | 33% | 1006.7 hPa | 0 mm | - | 632 W/m² | - |
| 1777920609 | 22.78° C | 28% | 1006.7 hPa | 0 mm | - | 639 W/m² | - |
| 1777920310 | 22.78° C | 30% | 1006.8 hPa | 0 mm | - | 660 W/m² | - |
| 1777920005 | 23.33° C | 28% | 1006.8 hPa | 0 mm | - | 100 W/m² | - |
| 1777919703 | 23.33° C | 27% | 1006.8 hPa | 0 mm | - | 669 W/m² | - |
| 1777919401 | 22.78° C | 26% | 1006.8 hPa | 0 mm | - | 676 W/m² | - |
| 1777919097 | 22.22° C | 29% | 1006.8 hPa | 0 mm | - | 696 W/m² | - |
| 1777918795 | 22.22° C | 27% | 1007.2 hPa | 0 mm | - | 690 W/m² | - |
| 1777918492 | 21.67° C | 28% | 1007.1 hPa | 0 mm | - | 726 W/m² | - |
| 1777918190 | 22.22° C | 27% | 1007 hPa | 0 mm | - | 198 W/m² | - |
| 1777917889 | 22.22° C | 28% | 1007 hPa | 0 mm | - | 748 W/m² | - |
| 1777917587 | 22.22° C | 32% | 1007.2 hPa | 0 mm | - | 748 W/m² | - |
| 1777917284 | 22.22° C | 28% | 1007.1 hPa | 0 mm | - | 761 W/m² | - |
| 1777916981 | 21.67° C | 27% | 1007.2 hPa | 0 mm | - | 738 W/m² | - |
| 1777916679 | 21.67° C | 27% | 1007.4 hPa | 0 mm | - | 749 W/m² | - |
| 1777916376 | 21.67° C | 26% | 1007.3 hPa | 0 mm | - | 771 W/m² | - |
| 1777916072 | 22.22° C | 28% | 1007.3 hPa | 0 mm | - | 774 W/m² | - |
| 1777915770 | 21.67° C | 30% | 1007.3 hPa | 0 mm | - | 773 W/m² | - |
| 1777915465 | 21.67° C | 27% | 1007.4 hPa | 0 mm | - | 775 W/m² | - |
| 1777915162 | 21.67° C | 28% | 1007.5 hPa | 0 mm | - | 787 W/m² | - |
| 1777914859 | 21.67° C | 28% | 1007.6 hPa | 0 mm | - | 793 W/m² | - |
| 1777914556 | 21.67° C | 28% | 1007.4 hPa | 0 mm | - | 787 W/m² | - |
| 1777914253 | 21.67° C | 25% | 1007.8 hPa | 0 mm | - | 785 W/m² | - |
| 1777913950 | 21.67° C | 26% | 1007.7 hPa | 0 mm | - | 794 W/m² | - |
* Rain latest hour (hover to see other rain measurements)
** Current wind speed in m/s (hover to see current wind gust speed)